Waarnemingen

Advertentie
Mijn weer
Catania/Sigonella, Italië (16459): temperatuur & dauwpunt: 13.11.2017 18:00:00 - 19.11.2017 18:00:00 (CET)Catania/Sigonella, Italië (16459): windsnelheid: 13.11.2017 18:00:00 - 19.11.2017 18:00:00 (CET)Catania/Sigonella, Italië (16459): windrichting: 13.11.2017 18:00:00 - 19.11.2017 18:00:00 (CET)Catania/Sigonella, Italië (16459): luchtdruk: 13.11.2017 18:00:00 - 19.11.2017 18:00:00 (CET)Catania/Sigonella, Italië (16459): zicht: 13.11.2017 18:00:00 - 19.11.2017 18:00:00 (CET)
Datum & Tijd tt [°C] td [°C] ff [km/u] ff [kn] dd ppp [hPa] vv [km]
19.11.2017 18:00:00 14,0 3,0 13 7 WNW - 10
19.11.2017 17:00:00 15,0 1,0 18 10 NW - 10
19.11.2017 16:00:00 18,2 2,5 24 13 WNW 1014,5 10
19.11.2017 15:00:00 18,0 3,0 29 16 WNW - 10
19.11.2017 14:00:00 19,0 5,0 28 15 WNW - 10
19.11.2017 13:00:00 17,4 6,9 37 20 W 1014,9 10
19.11.2017 12:00:00 19,0 7,0 31 17 W - 10
19.11.2017 11:00:00 17,0 8,0 29 16 W - 10
19.11.2017 10:00:00 17,0 8,4 24 13 WZW 1015,3 10
19.11.2017 09:00:00 15,0 10,0 22 12 WZW - 10
19.11.2017 08:00:00 12,0 10,0 18 10 W - 10
19.11.2017 07:00:00 10,2 10,2 13 7 WNW 1014,9 10
19.11.2017 06:00:00 11,0 11,0 9 5 NW - 10
19.11.2017 05:00:00 13,0 13,0 8 4 NNW - 10
19.11.2017 04:00:00 13,4 13,4 13 7 W 1014,5 10
19.11.2017 03:00:00 14,0 14,0 9 5 WNW - 10
19.11.2017 02:00:00 17,0 17,0 8 4 W - 10
19.11.2017 01:00:00 15,8 15,8 18 10 ZZW 1015,3 10
19.11.2017 00:00:00 16,0 16,0 15 8 W - 10
18.11.2017 23:00:00 17,0 17,0 13 7 W - 10
18.11.2017 22:00:00 17,2 16,4 13 7 W 1014,5 10
18.11.2017 21:00:00 14,0 12,0 15 8 W - 10
18.11.2017 20:00:00 14,0 12,0 8 4 WZW - 10
18.11.2017 19:00:00 15,0 13,9 9 5 ZW 1014,2 10
18.11.2017 18:00:00 16,0 13,0 8 4 ZW - 10
18.11.2017 17:00:00 16,0 12,0 4 2 O - 10
18.11.2017 16:00:00 16,4 12,0 11 6 OZO 1013,5 10
18.11.2017 15:00:00 20,0 11,0 16 9 ONO - 10
18.11.2017 14:00:00 19,0 8,0 5 3 NNO - 10
18.11.2017 13:00:00 22,2 6,4 18 10 W 1013,4 10
18.11.2017 12:00:00 20,0 6,0 22 12 W - 10
18.11.2017 11:00:00 20,0 8,0 22 12 W - 10
18.11.2017 10:00:00 18,4 9,2 21 11 W 1013,9 10
18.11.2017 09:00:00 16,0 13,0 8 4 ZZW - 10
18.11.2017 08:00:00 14,0 12,0 8 4 ZW - 10
18.11.2017 07:00:00 13,0 10,7 13 7 WNW 1013,0 10
18.11.2017 06:00:00 12,0 11,0 11 6 WNW - 10
18.11.2017 05:00:00 12,0 12,0 5 3 W - 10
18.11.2017 04:00:00 12,0 12,0 9 5 W 1012,5 10
18.11.2017 03:00:00 12,0 12,0 8 4 NW - 10
18.11.2017 02:00:00 12,0 12,0 11 6 W - 10
18.11.2017 01:00:00 10,8 10,8 11 6 W 1012,6 15
18.11.2017 00:00:00 10,0 10,0 2 1 Z - 10
17.11.2017 23:00:00 9,0 9,0 4 2 Z - 10
17.11.2017 22:00:00 11,4 11,4 8 4 WNW 1012,6 10
17.11.2017 21:00:00 11,0 11,0 11 6 WZW - 10
17.11.2017 20:00:00 13,0 13,0 8 4 WZW - 10
17.11.2017 19:00:00 13,8 13,8 2 1 NW 1011,1 10
17.11.2017 18:00:00 15,0 13,0 2 1 NO - 10
17.11.2017 17:00:00 16,0 13,0 4 2 O - 10
17.11.2017 16:00:00 18,2 9,0 5 3 ONO 1009,9 10
17.11.2017 15:00:00 18,0 8,0 9 5 ZZW - 10
17.11.2017 14:00:00 20,0 12,0 11 6 ZW - 10
17.11.2017 13:00:00 19,2 10,2 16 9 WZW 1010,2 10
17.11.2017 12:00:00 19,0 11,0 18 10 WZW - 10
17.11.2017 11:00:00 19,0 10,0 16 9 WZW - 10
17.11.2017 10:00:00 18,2 11,5 21 11 W 1010,4 10
17.11.2017 09:00:00 16,0 12,0 15 8 W - 10
17.11.2017 08:00:00 14,0 12,0 15 8 W - 10
17.11.2017 07:00:00 11,4 11,3 18 10 W 1010,8 10
17.11.2017 06:00:00 12,0 12,0 21 11 W - 10
17.11.2017 05:00:00 12,0 12,0 21 11 WZW - 10
17.11.2017 04:00:00 11,8 11,8 24 13 WZW 1010,6 10
17.11.2017 03:00:00 12,0 12,0 24 13 W - 10
17.11.2017 02:00:00 11,0 11,0 22 12 W - 10
17.11.2017 01:00:00 11,2 11,2 18 10 W 1011,4 10
17.11.2017 00:00:00 11,0 11,0 15 8 W - 10
16.11.2017 23:00:00 11,0 11,0 15 8 W - 10
16.11.2017 22:00:00 11,6 11,6 13 7 W 1011,4 10
16.11.2017 21:00:00 11,0 11,0 13 7 W - 10
16.11.2017 20:00:00 11,0 11,0 5 3 W - 10
16.11.2017 19:00:00 11,2 11,2 8 4 WZW 1011,0 10
16.11.2017 18:00:00 13,0 13,0 5 3 WZW - 10
16.11.2017 17:00:00 15,0 14,0 4 2 Z - 10
16.11.2017 16:00:00 15,2 10,4 11 6 O 1009,9 10
16.11.2017 15:00:00 16,0 9,0 13 7 O - 10
16.11.2017 14:00:00 17,0 9,0 8 4 OZO - 10
16.11.2017 13:00:00 17,6 7,6 4 2 ZZO 1010,2 10
16.11.2017 12:00:00 17,0 8,0 5 3 W - 10
16.11.2017 11:00:00 17,0 11,0 9 5 W - 10
16.11.2017 10:00:00 14,8 12,0 9 5 W 1011,5 10
16.11.2017 09:00:00 12,0 12,0 13 7 W - 10
16.11.2017 08:00:00 8,0 8,0 8 4 W - 10
16.11.2017 07:00:00 7,2 7,2 9 5 WNW 1010,9 10
16.11.2017 06:00:00 8,0 8,0 5 3 WZW - 10
16.11.2017 05:00:00 9,0 9,0 9 5 NW - 10
16.11.2017 04:00:00 9,6 9,6 8 4 WZW 1010,6 10
16.11.2017 03:00:00 9,0 9,0 5 3 W - 10
16.11.2017 02:00:00 10,0 10,0 5 3 NNW - 8
16.11.2017 01:00:00 10,2 10,2 9 5 NNO 1011,0 7
16.11.2017 00:00:00 10,0 10,0 4 2 WNW - 10
15.11.2017 23:00:00 10,0 10,0 5 3 NNO - 10
15.11.2017 22:00:00 10,0 10,0 9 5 ONO 1011,4 10
15.11.2017 21:00:00 10,0 10,0 4 2 O - 10
15.11.2017 20:00:00 10,0 10,0 8 4 ZZW - 10
15.11.2017 19:00:00 10,8 10,8 5 3 Z 1011,6 10
15.11.2017 18:00:00 12,0 12,0 9 5 ONO - 10
15.11.2017 17:00:00 12,0 10,0 13 7 O - 10
15.11.2017 16:00:00 16,0 9,7 11 6 ONO 1011,2 10
15.11.2017 15:00:00 15,0 10,0 16 9 O - 10
15.11.2017 14:00:00 16,0 11,0 9 5 OZO - 10
15.11.2017 13:00:00 15,0 11,4 15 8 O 1011,5 10
15.11.2017 12:00:00 16,0 9,0 4 2 Z - 10
15.11.2017 11:00:00 15,0 9,0 2 1 ZZW - 10
15.11.2017 10:00:00 14,0 10,2 8 4 W 1012,3 10
15.11.2017 09:00:00 11,0 11,0 11 6 W - 10
15.11.2017 08:00:00 9,0 9,0 8 4 WNW - 10
15.11.2017 07:00:00 6,4 6,4 8 4 W 1011,1 10
15.11.2017 06:00:00 6,0 6,0 11 6 W - 10
15.11.2017 05:00:00 7,0 7,0 5 3 W - 10
15.11.2017 04:00:00 7,8 7,8 8 4 NW 1009,2 10
15.11.2017 03:00:00 8,0 8,0 5 3 WZW - 10
15.11.2017 02:00:00 8,0 8,0 8 4 NNW - 10
15.11.2017 01:00:00 8,0 8,0 11 6 W 1008,6 10
15.11.2017 00:00:00 9,0 9,0 5 3 W - 10
14.11.2017 23:00:00 9,0 9,0 11 6 NW - 10
14.11.2017 22:00:00 9,0 9,0 9 5 WNW 1008,1 10
14.11.2017 21:00:00 9,0 9,0 13 7 W - 10
14.11.2017 20:00:00 9,0 9,0 4 2 OZO - 10
14.11.2017 19:00:00 9,8 9,8 8 4 W 1006,1 10
14.11.2017 18:00:00 10,0 10,0 11 6 WZW - 10
14.11.2017 17:00:00 12,0 12,0 13 7 WZW - 10
14.11.2017 16:00:00 12,4 10,8 8 4 W 1004,7 10
14.11.2017 15:00:00 12,0 12,0 18 10 WZW - 10
14.11.2017 14:00:00 13,0 11,0 24 13 WZW - 10
14.11.2017 13:00:00 13,0 7,2 26 14 WZW 1004,9 10
14.11.2017 12:00:00 15,0 8,0 18 10 W - 10
14.11.2017 11:00:00 15,0 8,0 18 10 W - 10
14.11.2017 10:00:00 13,0 9,2 13 7 W 1005,1 10
14.11.2017 09:00:00 12,0 8,0 15 8 W - 10
14.11.2017 08:00:00 11,0 11,0 8 4 NW - 10
14.11.2017 07:00:00 9,2 9,2 11 6 W 1004,6 10
14.11.2017 06:00:00 10,0 10,0 8 4 WZW - 10
14.11.2017 05:00:00 12,0 12,0 11 6 W - 10
14.11.2017 04:00:00 12,8 12,8 16 9 W 1004,8 10
14.11.2017 03:00:00 13,0 13,0 9 5 W - 10
14.11.2017 02:00:00 12,0 12,0 11 6 WZW - 10
14.11.2017 01:00:00 12,4 12,4 18 10 WZW 1004,4 10
14.11.2017 00:00:00 12,0 12,0 18 10 WZW - 10
13.11.2017 23:00:00 12,0 11,0 16 9 WZW - 10
13.11.2017 22:00:00 13,2 13,2 13 7 ZW 1004,5 10
13.11.2017 21:00:00 12,0 11,0 22 12 W - 10
13.11.2017 20:00:00 13,0 10,0 26 14 WNW - 10
13.11.2017 19:00:00 14,6 12,3 26 14 W 1003,6 10
13.11.2017 18:00:00 15,0 15,0 16 9 W - 10

tt = temperatuur
td = dauwpunt
ff = windsnelheid
dd = windrichting
ppp = luchtdruk
vv = zicht

Weerstations in de omgeving